Wind_Speed
27 27 27 27 27 26 27 27 27 26 25 23 21 21 20 20 20 20 20 19 18 16 16 16 16 17 17 17 16 16 16 16 16 16 16 15 15 16 16 16 16 17 17 17
28 28 28 29 29 28 29 29 28 27 25 23 23 23 24 23 21 21 21 21 20 19 18 18 18 19 18 19 18 18 18 18 18 18 17 17 18 19 18 18 18 19 19 19
27 28 29 30 29 29 29 30 30 28 25 25 25 25 25 24 23 22 21 22 22 20 20 19 19 20 19 20 21 21 21 20 19 20 20 20 20 19 19 20 20 21 22 22
28 29 30 28 28 29 30 31 30 29 27 27 27 26 25 25 25 25 24 23 22 21 22 22 22 21 22 22 23 23 22 22 22 21 22 22 21 21 21 22 23 24 24 24
29 30 31 29 27 28 30 31 30 29 27 28 28 28 28 28 27 26 26 26 25 24 24 24 24 24 24 24 24 24 24 24 24 23 23 23 24 24 23 24 25 25 26 25
29 30 31 29 27 27 29 30 28 28 28 29 29 29 28 27 26 26 27 27 27 27 26 26 26 26 25 25 25 26 26 26 25 25 25 26 26 26 26 26 27 27 27 27
28 29 29 28 27 27 28 28 27 28 28 28 28 27 27 26 27 27 27 27 27 28 28 28 28 28 27 27 27 28 28 26 26 26 27 27 27 28 28 28 28 28 28 29
27 27 27 26 26 27 27 26 26 27 27 27 27 27 27 27 27 28 28 28 28 28 28 29 29 29 28 28 28 28 28 28 28 28 28 29 29 30 30 30 29 29 30 31
25 25 25 25 25 25 26 26 26 26 27 27 27 27 27 28 28 28 29 28 28 28 29 29 29 29 28 28 30 30 29 28 28 29 29 30 30 30 31 31 32 32 32 33
25 23 23 23 23 24 25 25 25 27 26 26 27 27 27 26 27 26 27 27 27 28 29 29 30 30 30 29 29 29 28 28 28 29 29 30 31 31 32 33 33 34 34 35
24 23 23 22 22 22 23 24 25 26 27 26 25 26 26 25 25 25 26 26 27 27 28 28 29 28 28 28 28 27 27 27 26 28 29 30 31 32 33 32 33 34 35 36
24 23 23 22 21 21 22 23 23 24 25 25 25 25 25 25 24 24 25 25 26 26 27 27 29 29 28 27 27 27 27 28 28 28 29 30 31 32 33 33 33 34 35 36
23 23 23 22 22 21 20 21 22 23 24 25 25 24 25 25 25 25 25 25 25 25 26 27 27 27 27 26 26 27 28 28 29 29 30 30 30 31 32 33 33 34 35 36
24 24 24 23 23 22 21 21 22 22 22 24 25 24 23 24 24 25 25 26 25 24 25 25 25 26 26 26 26 26 26 27 28 29 29 30 31 31 32 33 33 33 34 34
25 25 25 24 22 22 22 22 23 23 23 23 23 23 24 24 24 24 24 25 25 25 25 25 25 24 24 24 24 25 25 26 27 27 29 30 32 32 32 32 32 32 32 33
24 25 24 23 22 22 22 23 23 23 23 23 22 23 24 25 24 23 23 23 24 24 24 24 23 23 23 23 24 25 25 26 27 28 28 29 30 30 30 31 31 31 31 31
21 22 21 22 23 23 23 23 23 22 22 23 23 22 22 22 21 22 22 22 22 22 23 23 22 22 22 22 23 24 25 26 27 27 28 28 28 28 28 29 29 30 30 31
20 21 20 20 21 21 21 20 19 20 21 21 21 20 21 20 20 21 21 21 21 22 22 22 22 22 22 22 23 24 24 25 26 26 27 27 27 27 27 28 28 28 29 29
21 22 21 20 19 19 20 20 20 19 19 20 20 19 19 20 20 19 19 19 20 21 21 21 22 22 22 22 23 23 23 24 24 26 27 27 27 27 28 28 29 29 29 29
19 20 20 20 20 19 19 19 19 19 19 19 19 19 19 18 18 18 18 18 19 19 19 19 20 20 20 21 22 22 23 24 24 25 26 27 27 27 27 27 28 28 29 29
18 18 19 19 19 18 19 19 19 19 19 18 18 18 18 17 17 18 18 18 18 18 18 19 19 19 20 21 22 23 23 23 24 24 25 26 26 26 27 27 27 28 28 29
16 16 16 17 17 17 17 17 17 18 17 17 17 17 18 17 17 18 18 18 18 18 18 18 19 19 20 21 21 22 22 22 23 23 24 25 25 26 27 27 28 29 29 30
14 15 15 15 15 15 15 15 16 15 15 15 15 16 16 16 16 16 16 17 17 17 18 18 19 20 20 20 20 21 21 22 23 23 24 24 25 25 25 26 27 28 29 30
14 13 13 13 14 14 14 13 14 14 14 14 13 14 14 14 14 14 15 16 16 16 16 17 18 19 19 19 20 21 22 22 23 23 24 24 24 25 26 27 27 28 29 30
13 13 12 12 13 13 12 12 12 12 12 12 12 12 13 13 14 14 14 15 15 15 16 17 18 18 19 19 21 22 23 23 24 24 24 25 26 26 27 27 29 29 30 31
12 11 11 11 11 10 10 10 10 10 10 10 10 11 11 12 13 14 14 15 15 15 16 17 18 19 20 21 22 22 23 23 23 24 25 26 26 26 27 28 29 30 30 31
10 10 10 10 9 9 9 9 9 9 8 8 9 9 10 11 12 13 14 15 15 15 16 17 18 19 20 21 21 22 22 23 24 25 25 26 26 26 27 28 29 30 31 31
Wind_Direction
238 236 232 232 235 240 243 247 251 253 251 250 253 258 263 267 271 276 279 274 272 271 275 280 280 280 280 279 277 277 277 277 279 280 281 278 277 277 279 281 282 280 280 282
242 237 235 236 237 238 242 245 249 253 254 257 258 260 263 264 269 274 274 272 271 274 277 274 274 276 276 277 276 275 276 277 279 280 282 282 281 281 279 279 280 279 280 281
240 238 238 237 238 237 241 245 249 253 256 260 262 263 264 263 266 269 271 272 270 271 273 275 277 277 274 273 277 276 275 276 277 278 281 281 280 281 280 280 279 279 279 279
244 242 241 239 240 240 241 245 250 252 256 259 261 262 264 265 268 270 271 271 271 270 271 272 272 273 271 271 275 275 274 273 274 275 277 279 278 278 279 280 278 277 278 279
245 247 246 243 242 242 244 246 250 250 252 257 260 262 263 266 266 268 269 272 270 269 268 268 268 269 270 271 273 273 274 274 275 274 275 275 277 278 277 277 278 278 277 277
247 247 248 249 246 246 247 247 248 251 252 256 261 260 262 263 263 266 269 271 271 270 268 268 269 270 273 274 274 275 273 272 271 271 272 273 275 276 277 277 276 277 276 276
247 250 251 249 248 246 247 249 249 251 255 260 263 264 263 263 264 265 266 269 271 271 270 269 270 272 272 275 276 276 273 274 273 272 273 275 277 277 277 276 276 276 276 276
247 250 250 251 251 249 250 250 251 253 256 260 263 264 265 265 266 266 266 267 268 270 271 270 272 274 274 274 274 275 274 273 274 274 275 276 278 278 277 276 276 276 276 276
246 250 251 252 253 252 252 252 253 254 255 257 259 263 265 268 270 269 267 267 267 268 271 272 273 273 273 274 275 275 275 273 275 277 277 277 277 277 277 277 277 276 276 276
247 251 253 252 254 256 256 254 255 257 258 259 260 263 266 269 270 270 268 267 268 269 269 270 272 274 275 276 277 277 277 276 275 277 277 277 276 277 278 278 278 277 276 276
249 251 254 254 257 260 261 257 258 260 262 261 262 263 264 266 268 269 269 268 270 270 269 270 271 274 278 279 279 277 276 277 276 275 276 276 277 278 280 282 280 279 280 279
250 250 253 258 262 263 264 261 259 259 259 259 262 264 264 266 269 269 269 269 270 271 271 273 273 276 278 277 277 275 274 275 276 277 278 278 279 280 281 282 283 283 283 284
250 252 254 260 264 264 263 261 260 259 259 259 262 264 265 268 271 271 270 269 271 272 273 275 276 276 276 275 275 276 276 276 276 278 280 280 280 281 282 283 284 285 285 284
252 253 254 257 260 263 263 261 260 262 263 263 261 263 266 267 270 270 269 271 271 271 273 274 276 276 276 276 275 275 276 277 278 280 282 282 282 282 282 283 284 286 286 284
251 252 254 256 260 262 263 262 262 263 265 264 264 266 267 267 268 268 269 271 272 272 273 274 274 275 276 276 276 275 276 277 279 282 284 284 284 284 284 284 284 285 287 286
250 252 253 255 260 262 265 264 264 264 265 266 268 269 266 269 270 270 272 272 272 273 273 273 274 276 279 278 278 279 279 280 280 283 285 287 288 287 286 285 285 286 288 289
247 250 253 256 259 262 264 268 268 267 267 267 271 271 268 267 268 270 270 271 271 273 274 274 275 276 278 278 280 282 282 283 284 284 286 289 290 290 289 290 291 291 292 291
246 250 254 257 261 261 263 266 270 272 271 270 271 272 272 271 271 270 270 271 272 274 275 275 276 277 279 280 280 282 283 284 285 286 288 290 290 291 292 293 294 294 294 293
248 250 253 253 256 259 262 267 270 273 272 272 273 276 275 271 269 268 271 272 273 274 275 277 279 282 283 284 285 284 285 287 288 289 290 290 291 292 293 294 295 295 294 293
247 251 254 257 257 261 265 269 271 273 274 273 274 273 273 270 267 269 271 273 275 277 280 282 284 285 286 287 288 288 288 289 291 293 293 292 292 294 294 295 296 297 298 297
248 252 255 259 262 265 268 271 274 275 274 271 272 271 272 271 269 271 274 278 280 280 283 286 288 289 290 292 293 293 292 292 293 295 297 296 296 296 297 298 299 300 300 299
249 251 254 257 260 264 269 274 276 274 272 270 270 269 270 271 271 272 274 277 280 281 284 287 290 292 293 294 295 296 296 296 296 297 298 298 298 299 300 300 300 300 299 298
250 255 256 258 260 263 268 273 274 269 267 268 269 269 270 271 272 275 278 281 282 284 284 286 289 291 293 294 296 297 298 298 298 299 301 301 301 302 302 301 302 302 301 300
251 255 257 258 260 263 267 270 270 269 268 268 268 270 270 271 274 279 282 284 285 286 288 290 291 291 291 294 297 299 300 300 300 300 301 301 302 303 303 304 305 305 304 303
253 256 257 260 262 262 262 264 268 270 271 270 271 272 275 277 280 283 285 287 288 290 293 295 296 295 295 296 298 299 300 301 302 301 301 303 303 304 305 305 306 306 306 307
253 255 254 257 262 261 262 263 264 267 269 272 273 274 280 285 287 288 289 289 289 292 296 298 298 298 298 299 301 302 303 304 303 304 305 305 304 305 306 306 307 307 307 308
254 254 251 250 260 269 269 263 262 266 271 272 273 277 283 288 293 293 293 292 293 296 297 298 300 300 301 302 304 306 306 306 306 305 306 306 306 307 309 309 308 309 309 309
Height
5853 5856 5859 5860 5862 5864 5866 5866 5867 5868 5870 5872 5873 5873 5874 5874 5873 5873 5873 5874 5874 5874 5875 5875 5875 5875 5875 5874 5874 5874 5873 5873 5872 5871 5871 5870 5869 5869 5868 5868 5867 5866 5865 5864
5846 5849 5851 5853 5856 5857 5859 5860 5861 5863 5865 5866 5867 5867 5867 5868 5868 5868 5869 5869 5869 5869 5869 5869 5870 5870 5870 5869 5868 5868 5868 5867 5867 5866 5866 5865 5864 5864 5863 5862 5861 5860 5859 5858
5840 5842 5844 5847 5849 5851 5852 5854 5855 5857 5860 5860 5860 5861 5861 5861 5862 5863 5863 5864 5864 5863 5864 5864 5864 5864 5864 5864 5863 5862 5862 5861 5860 5860 5860 5859 5859 5858 5857 5856 5855 5854 5853 5852
5833 5836 5837 5842 5843 5844 5846 5847 5848 5850 5852 5853 5854 5854 5855 5855 5855 5856 5856 5857 5857 5857 5858 5858 5858 5858 5858 5857 5857 5856 5855 5853 5853 5853 5853 5852 5852 5851 5850 5849 5848 5847 5846 5845
5826 5828 5830 5834 5836 5837 5838 5840 5842 5843 5845 5846 5847 5848 5848 5848 5848 5849 5849 5850 5851 5851 5851 5851 5851 5851 5850 5850 5850 5849 5848 5847 5846 5845 5845 5845 5844 5844 5843 5842 5841 5839 5838 5837
5819 5821 5822 5827 5829 5830 5831 5832 5835 5836 5838 5838 5839 5840 5842 5841 5841 5841 5842 5842 5842 5843 5843 5843 5843 5843 5842 5842 5842 5842 5840 5839 5838 5837 5837 5836 5836 5835 5835 5833 5832 5831 5830 5829
5812 5813 5816 5819 5821 5822 5825 5827 5828 5828 5830 5831 5832 5833 5835 5835 5835 5835 5835 5835 5835 5835 5835 5835 5835 5834 5834 5834 5834 5833 5832 5831 5830 5829 5829 5828 5828 5827 5826 5825 5824 5822 5821 5820
5805 5807 5811 5812 5813 5815 5817 5819 5819 5821 5822 5823 5824 5825 5825 5826 5826 5827 5827 5828 5827 5827 5827 5827 5827 5826 5826 5826 5825 5824 5823 5822 5822 5821 5820 5819 5819 5818 5817 5816 5815 5813 5812 5810
5800 5803 5803 5805 5806 5807 5809 5811 5812 5813 5814 5815 5817 5817 5818 5818 5818 5818 5819 5819 5819 5819 5819 5819 5818 5818 5817 5817 5816 5815 5813 5812 5811 5811 5811 5810 5809 5808 5807 5806 5805 5803 5801 5800
5793 5795 5796 5797 5799 5800 5802 5803 5804 5805 5806 5807 5808 5809 5810 5810 5810 5810 5810 5810 5810 5811 5811 5810 5809 5809 5808 5808 5807 5805 5804 5803 5803 5802 5802 5801 5800 5799 5797 5796 5795 5793 5791 5789
5787 5789 5790 5792 5793 5794 5796 5796 5797 5797 5798 5799 5800 5801 5802 5802 5802 5802 5802 5802 5802 5802 5802 5802 5801 5800 5799 5798 5797 5796 5796 5795 5794 5794 5793 5792 5790 5789 5787 5785 5784 5783 5781 5779
5781 5783 5785 5786 5787 5787 5788 5789 5789 5790 5790 5791 5792 5793 5793 5793 5794 5793 5793 5794 5793 5793 5793 5792 5792 5791 5790 5789 5789 5788 5787 5786 5786 5785 5784 5782 5780 5779 5778 5776 5774 5772 5770 5768
5776 5778 5779 5780 5780 5780 5781 5782 5782 5783 5783 5784 5784 5784 5785 5785 5785 5785 5785 5785 5785 5785 5784 5784 5783 5782 5782 5781 5780 5779 5779 5778 5777 5776 5775 5773 5771 5770 5768 5766 5764 5762 5760 5758
5770 5771 5773 5774 5774 5774 5774 5775 5776 5776 5776 5776 5777 5777 5777 5777 5777 5776 5777 5777 5777 5777 5777 5776 5775 5774 5774 5773 5772 5771 5770 5769 5768 5767 5765 5764 5762 5760 5758 5757 5755 5752 5750 5747
5764 5765 5767 5768 5768 5768 5768 5768 5769 5769 5770 5770 5770 5770 5770 5769 5769 5769 5769 5769 5769 5769 5769 5768 5767 5767 5766 5765 5764 5763 5762 5761 5760 5758 5757 5755 5753 5751 5749 5747 5745 5743 5740 5738
5757 5758 5760 5761 5762 5762 5762 5762 5762 5763 5763 5763 5763 5762 5762 5762 5762 5762 5762 5762 5762 5762 5761 5760 5760 5759 5758 5757 5756 5755 5754 5753 5752 5750 5748 5746 5744 5742 5740 5738 5736 5733 5731 5728
5751 5752 5754 5755 5755 5756 5756 5755 5755 5756 5756 5756 5755 5755 5755 5755 5755 5755 5755 5755 5755 5755 5754 5753 5752 5752 5751 5750 5748 5747 5746 5745 5743 5741 5740 5738 5735 5733 5731 5729 5727 5725 5722 5719
5745 5746 5747 5749 5749 5749 5749 5749 5749 5749 5749 5749 5749 5749 5748 5748 5748 5748 5748 5748 5748 5748 5747 5746 5745 5744 5744 5743 5741 5740 5738 5737 5735 5733 5731 5729 5727 5725 5724 5721 5719 5716 5713 5711
5739 5740 5741 5742 5743 5743 5743 5743 5744 5744 5744 5743 5743 5742 5742 5742 5742 5742 5742 5742 5741 5741 5740 5739 5738 5737 5736 5735 5734 5732 5731 5729 5727 5725 5723 5721 5719 5717 5715 5713 5710 5707 5705 5702
5734 5735 5736 5737 5737 5738 5738 5738 5738 5738 5737 5737 5737 5737 5736 5736 5736 5736 5736 5736 5735 5734 5734 5733 5732 5731 5729 5728 5727 5725 5723 5721 5720 5718 5715 5713 5711 5709 5707 5704 5702 5699 5696 5693
5729 5730 5731 5731 5731 5731 5732 5732 5732 5732 5731 5731 5732 5731 5731 5731 5731 5731 5731 5730 5729 5728 5728 5727 5726 5724 5723 5722 5720 5718 5716 5714 5712 5710 5708 5706 5703 5701 5699 5696 5693 5691 5688 5685
5724 5725 5725 5726 5726 5726 5726 5726 5726 5726 5726 5726 5726 5726 5726 5726 5726 5725 5725 5724 5724 5723 5722 5721 5720 5719 5717 5716 5714 5712 5710 5708 5705 5703 5701 5698 5696 5693 5691 5688 5685 5682 5680 5677
5719 5720 5720 5721 5721 5722 5722 5722 5722 5721 5721 5721 5722 5721 5721 5721 5721 5720 5720 5719 5719 5718 5717 5716 5715 5713 5712 5710 5708 5705 5703 5701 5699 5696 5694 5691 5688 5686 5683 5680 5677 5674 5671 5668
5715 5715 5716 5716 5717 5717 5717 5718 5717 5717 5717 5717 5717 5717 5717 5717 5716 5716 5715 5715 5714 5712 5711 5710 5709 5707 5706 5704 5702 5699 5697 5694 5692 5689 5687 5684 5681 5679 5676 5673 5670 5666 5663 5659
5711 5711 5712 5712 5712 5713 5713 5714 5714 5714 5714 5713 5713 5713 5713 5713 5713 5712 5711 5710 5709 5708 5707 5705 5703 5702 5700 5698 5696 5693 5691 5688 5685 5682 5680 5677 5674 5671 5668 5665 5662 5658 5655 5651
5707 5708 5708 5709 5709 5709 5709 5710 5710 5710 5711 5710 5710 5710 5710 5709 5708 5708 5707 5706 5705 5703 5702 5700 5698 5696 5694 5692 5690 5687 5684 5682 5678 5675 5672 5669 5666 5663 5660 5657 5653 5650 5646 5642
5703 5704 5704 5705 5706 5706 5706 5706 5707 5707 5707 5707 5707 5707 5706 5706 5705 5704 5703 5701 5700 5698 5697 5695 5693 5691 5689 5686 5684 5681 5678 5675 5672 5669 5666 5662 5659 5655 5652 5649 5645 5641 5637 5633